Location: Palmerston North
(40.3500°S, 175.6170°E)
Time: 05:06:08
(UTC+13:00)

Cosmos 1745 Rocket - Pass Details

Date: 24 January 2019
Orbit: 953 x 998 km, 83.0° (Epoch: 16 October)

Event Time Altitude Azimuth Distance (km) Brightness Sun altitude
Exits shadow 23:04:00 23° 346° (NNW) 1,993 5.3 -21.5°
Maximum altitude 23:08:14 78° 263° (W) 1,031 4.1 -22.0°
Drops below altitude 10° 23:14:39 10° 176° (S) 2,781 7.1 -22.7°
Sets 23:17:11 0° 174° (S) 3,730 7.8 -22.9°
